Regional Weather Roundup
Issued by NWS

Home | Current Version | Previous Version | Text Only | Print | Product List | Glossary Off
Versions: 1 2 3 4 5 6 7 8 9 10 11 12 13 14 15 16 17 18 19 20 21 22 23 24 25 26 27 28

000
ASUS45 KCYS 150510
RWRWY

WYOMING REGIONAL WEATHER ROUNDUP
NATIONAL WEATHER SERVICE CHEYENNE WY
1000 PM MST THU DEC 14 2017

NOTE:  "FAIR" INDICATES FEW OR NO CLOUDS BELOW 12,000 FEET
WITH NO SIGNIFICANT WEATHER AND/OR OBSTRUCTIONS TO VISIBILITY.

WYZ001-150600-
YELLOWSTONE NATIONAL PARK

CITY           SKY/WX    TMP DP  RH WIND       PRES   REMARKS
LK YELLOWSTONE   N/A      7   4  87 CALM      30.31F
W YELLOWSTONE  NOT AVBL

$$
WYZ002>013-054>058-071-098>099-150600-
NORTHERN WYOMING

CITY           SKY/WX    TMP DP  RH WIND       PRES   REMARKS
JACKSON        FAIR      14  11  87 NE6       30.33F WCI   5
CODY           FAIR      20  15  81 VRB3      30.11F
GREYBULL       FAIR      25  16  68 SE6       30.16F WCI  18
WORLAND        FAIR      20  16  84 E8        30.17F WCI  10
SHERIDAN       FAIR      22  15  75 S5        30.06F WCI  16
BUFFALO        FAIR      25  10  53 SW5       30.08F WCI  19
GILLETTE       FAIR      27  19  72 SW13      30.07F WCI  16
HULETT         FAIR      28  21  74 SW6       30.08F WCI  22
NEWCASTLE      FAIR      14  12  92 S7        30.12F WCI   4

$$
WYZ014>020-022>026-101>103-150600-
CENTRAL WYOMING

CITY           SKY/WX    TMP DP  RH WIND       PRES   REMARKS
BIG PINEY      FAIR      11   6  81 N6        30.28S WCI   1
PINEDALE       FOG       10   9  92 CALM      30.28F VSB 1/2
DUBOIS         FAIR      34  -6  18 NW28      30.19F WCI  20
LANDER         FAIR      20  14  77 W5        30.17F WCI  13
RIVERTON       FAIR      20  16  84 CALM      30.18F
CASPER         FAIR      27  15  61 SW14      30.16F WCI  16
DOUGLAS        FAIR      22  17  81 N8        30.14F WCI  12

$$
WYZ021-027>030-104>119-150600-
SOUTHERN WYOMING

CITY           SKY/WX    TMP DP  RH WIND       PRES   REMARKS
EVANSTON       FAIR      22  17  81 SW8       30.33F WCI  12
FORT BRIDGER   FAIR      31   5  33 W14       30.32F WCI  21
ROCK SPRINGS   FAIR      25  11  55 W14       30.27F WCI  13
DIXON          FAIR      16  10  79 E6        30.35F WCI   7
RAWLINS        FAIR      26  16  65 W14       30.25S WCI  14
SARATOGA       FAIR      18  12  79 S13       30.27F WCI   4
LARAMIE        FAIR       9   5  84 S5        30.19S WCI   1
CHEYENNE       FAIR      21   9  59 SW10      30.15F WCI  10
TORRINGTON     FAIR      15  12  88 CALM      30.16F
PINE BLUFFS    FAIR      12   9  85 CALM      30.19F

$$




USA.gov is the U.S. government's official web portal to all federal, state and local government web resources and services.